Weather History for KFNT - November, 2012

Change the Weather History Date:

Wednesday, November 7, 2012

  Actual Average Record
Temperature  
Mean Temperature 37 °F 42 °F  
Max Temperature 49 °F 51 °F 76 °F (1924)
Min Temperature 25 °F 34 °F 16 °F (1930)
Degree Days  
Heating Degree Days 28 23  
Month to date heating degree days 197 152  
Since 1 July heating degree days 803 848  
Cooling Degree Days 0 0  
Month to date cooling degree days 0 0  
Year to date cooling degree days 864 531  
Moisture  
Dew Point 27 °F    
Average Humidity 66    
Maximum Humidity 85    
Minimum Humidity 46    
Precipitation  
Precipitation 0.00 in 0.09 in 1.29 in (1996)
Month to date precipitation T 0.64  
Year to date precipitation 27.62 27.42  
Snow  
Snow 0.00 in 0.10 in 2.90 in (1951)
Month to date snowfall T 0.2  
Since 1 July snowfall 0.3 0.6  
Since 1 September snowfall 0.3 0.6  
Snow Depth 0.00 in    
Sea Level Pressure  
Sea Level Pressure 30.09 in    
Wind  
Wind Speed 5 mph (ENE)    
Max Wind Speed 10 mph    
Max Gust Speed 20 mph    
Visibility 9 miles    
Events      
T = Trace of Precipitation, MM = Missing Value Source: NWS Daily Summary

Daily Weather History Graph

Daily Weather History Graph

Search for Another Location

Airport or City:

Trip Planner

Search our weather history database for the weather conditions in past years. The results will help you decide how hot, cold, wet, or windy it might be!

Date:

Astronomy

Nov. 07, 2012 Rise Set
Actual Time 7:17 AM EST 5:19 PM EST
Civil Twilight 6:47 AM EST 5:49 PM EST
Nautical Twilight 6:13 AM EST 6:22 PM EST
Astronomical Twilight 5:40 AM EST 6:56 PM EST
Moon 12:00 AM EST (11/7) 1:37 PM EST (11/7)
Length of Visible Light 11h 01m
Length of Day
10h 01m
Last Quarter, 43% of the Moon is Illuminated
Nov 7
Last Quarter
Nov 13
New
Nov 20
First Quarter
Nov 28
Full
Dec 6
Last Quarter

Hourly Weather History & Observations

Time (EST) Temp. Windchill Dew Point Humidity Pressure Visibility Wind Dir Wind Speed Gust Speed Precip Events Conditions
12:53 AM 30.0 °F 24.1 °F 25.0 °F 82% 30.03 in 10.0 mi East 5.8 mph - N/A   Clear
1:53 AM 28.9 °F 22.8 °F 24.1 °F 82% 30.03 in 10.0 mi East 5.8 mph - N/A   Clear
2:53 AM 30.0 °F 25.2 °F 24.1 °F 79% 30.04 in 10.0 mi East 4.6 mph - N/A   Clear
3:53 AM 28.0 °F 21.7 °F 21.9 °F 78% 30.03 in 10.0 mi East 5.8 mph - N/A   Clear
4:53 AM 28.0 °F 20.8 °F 21.9 °F 78% 30.04 in 10.0 mi East 6.9 mph - N/A   Clear
5:27 AM 28.4 °F 20.4 °F 23.0 °F 80% 30.03 in 10.0 mi East 8.1 mph - N/A   Mostly Cloudy
5:48 AM 28.4 °F 20.4 °F 24.8 °F 86% 30.03 in 9.0 mi East 8.1 mph - N/A   Scattered Clouds
5:53 AM 28.9 °F 21.1 °F 24.1 °F 82% 30.06 in 9.0 mi East 8.1 mph - N/A   Partly Cloudy
6:53 AM 28.0 °F 21.7 °F 23.0 °F 81% 30.07 in 8.0 mi East 5.8 mph - N/A   Clear
7:53 AM 28.0 °F - 24.1 °F 85% 30.07 in 6.0 mi Calm Calm - N/A   Clear
8:53 AM 35.1 °F 29.3 °F 28.9 °F 78% 30.08 in 6.0 mi NE 6.9 mph - N/A   Haze
9:51 AM 37.4 °F 31.4 °F 30.2 °F 75% 30.07 in 6.0 mi NE 8.1 mph - N/A   Haze
9:53 AM 37.9 °F 32.7 °F 30.0 °F 73% 30.09 in 6.0 mi ENE 6.9 mph - N/A   Haze
10:53 AM 39.9 °F 34.5 °F 30.9 °F 70% 30.11 in 7.0 mi ENE 8.1 mph - N/A   Overcast
11:53 AM 44.1 °F 42.5 °F 33.1 °F 65% 30.11 in 10.0 mi ENE 3.5 mph - N/A   Scattered Clouds
12:53 PM 45.0 °F 41.2 °F 30.9 °F 58% 30.10 in 10.0 mi NNE 6.9 mph - N/A   Scattered Clouds
1:53 PM 46.9 °F - 30.0 °F 52% 30.09 in 10.0 mi Calm Calm - N/A   Mostly Cloudy
2:03 PM 46.4 °F - 30.2 °F 53% 30.06 in 10.0 mi Calm Calm - N/A   Scattered Clouds
2:53 PM 48.0 °F - 28.9 °F 48% 30.09 in 10.0 mi Calm Calm - N/A   Scattered Clouds
3:53 PM 46.9 °F - 28.9 °F 50% 30.09 in 10.0 mi NE 6.9 mph - N/A   Partly Cloudy
4:53 PM 44.1 °F 41.5 °F 27.0 °F 51% 30.11 in 10.0 mi NNE 4.6 mph - N/A   Clear
5:53 PM 41.0 °F 36.4 °F 27.0 °F 57% 30.13 in 10.0 mi North 6.9 mph - N/A   Clear
6:53 PM 39.0 °F 34.0 °F 30.0 °F 70% 30.15 in 10.0 mi NNE 6.9 mph - N/A   Clear
7:53 PM 35.1 °F 31.0 °F 28.0 °F 76% 30.17 in 10.0 mi East 4.6 mph - N/A   Clear
8:53 PM 35.1 °F 32.2 °F 27.0 °F 72% 30.17 in 10.0 mi East 3.5 mph - N/A   Clear
9:53 PM 32.0 °F - 27.0 °F 82% 30.19 in 10.0 mi Calm Calm - N/A   Clear
10:53 PM 27.0 °F - 23.0 °F 85% 30.19 in 8.0 mi Calm Calm - N/A   Clear
11:53 PM 28.0 °F - 24.1 °F 85% 30.19 in 7.0 mi Calm Calm - N/A   Clear